Terminal Aerodrome Forecast
Issued by NWS Wichita, KS

Home | Current Version | Previous Version | Text Only | Print | Product List | Glossary On
Versions: 1 2 3 4 5 6 7 8 9 10 11 12 13 14 15 16 17 18 19 20 21 22 23 24 25 26 27 28 29 30 31 32
000
FTUS43 KICT 180534
TAFICT
TAF
KICT 180534Z 1806/1906 08007KT 2SM -FZDZSN BR BKN006 OVC015
     FM181200 03007KT 1/2SM FG BKN007
     FM181800 02007KT 4SM BR SCT007 BKN015
     FM182100 02005KT 5SM BR BKN015=

USA.gov is the U.S. government's official web portal to all federal, state and local government web resources and services.